Location: �quirre
(50.4736°N, 2.2351°E)
Time: 16:02:31
(UTC+00:00)

Cosmos 1825 Rocket - Pass Details

Date: 07 August 2020
Orbit: 604 x 631 km, 82.5° (Epoch: 25 September)

Event Time Altitude Azimuth Distance (km) Brightness Sun altitude
Rises 03:47:29 0° 349° (N) 2,890 7.3 -6.3°
Reaches altitude 10° 03:49:43 10° 349° (N) 1,977 6.5 -6.0°
Maximum altitude 03:54:06 86° 261° (W) 616 3.5 -5.5°
Drops below altitude 10° 03:58:25 10° 173° (S) 1,950 5.9 -4.9°
Sets 04:00:36 0° 173° (S) 2,847 6.7 -4.6°
